Location: Ferchesar
(52.6477°N, 12.4298°E)
Time: 05:36:57
(UTC+02:00)

Transit 4A - Pass Details

Date: 28 February 2021
Orbit: 869 x 976 km, 66.8° (Epoch: 12 April)

Event Time Altitude Azimuth Distance (km) Brightness Sun altitude
Rises 09:58:18 0° 166° (SSE) 3,660 12.1 22.2°
Reaches altitude 10° 10:01:33 10° 150° (SSE) 2,712 12.3 22.5°
Maximum altitude 10:05:56 20° 106° (ESE) 2,075 10.8 22.9°
Drops below altitude 10° 10:10:16 10° 62° (ENE) 2,692 10.5 23.3°
Sets 10:13:29 0° 46° (NE) 3,625 10.9 23.6°
